Hourly Data Report for October 20, 2014

All times are specified in Local Standard Time (LST). Add 1 hour to adjust for Daylight Saving Time where and when it is observed.

CHARLOTTETOWN A
PRINCE EDWARD ISLAND

46°17'21.000" N
63°07'09.000" W
48.50 m
8300301
71706
YYG

Download Data

Hourly Data (October 2014)
Hourly Data Report for October 20, 2014
Temp Definition
°C
Dew Point Temp Definition
°C
Rel Hum Definition
%
Wind Dir Definition
10's deg

Wind Spd Definition
km/h
Visibility Definition
km
Stn Press Definition
kPa
Hmdx Definition


Wind Chill Definition


Weather Definition


TIME
00:00 Legend Double Dagger 7.2 5.8 91 35 17 24.1 99.48     LegendNANA
01:00 Legend Double Dagger 6.5 5.5 93 34 13 24.1 99.45     LegendNANA
02:00 Legend Double Dagger 5.9 5.3 96 34 18 19.3 99.43     Cloudy
03:00 Legend Double Dagger 5.7 5.0 95 30 17 24.1 99.39     Rain Showers
04:00 Legend Double Dagger 5.0 4.1 94 28 17 24.1 99.41     LegendNANA
05:00 Legend Double Dagger 4.2 3.0 92 28 18 24.1 99.45     Cloudy
06:00 Legend Double Dagger 4.0 2.7 91 27 19 24.1 99.50     Rain Showers
07:00 Legend Double Dagger 4.3 3.0 91 27 17 24.1 99.61     Rain Showers
08:00 Legend Double Dagger 4.2 2.4 88 28 23 24.1 99.72     Mostly Cloudy
09:00 Legend Double Dagger 4.5 1.0 78 27 29 24.1 99.83     LegendNANA
10:00 Legend Double Dagger 4.7 0.5 74 27 25 24.1 99.91     LegendNANA
11:00 Legend Double Dagger 5.3 1.1 74 27 21 24.1 99.97     Mostly Cloudy
12:00 Legend Double Dagger 5.7 0.1 67 25 27 24.1 100.00     LegendNANA
13:00 Legend Double Dagger 6.5 0.6 66 26 18 24.1 100.00     LegendNANA
14:00 Legend Double Dagger 7.4 -0.5 57 26 27 24.1 100.03     Mostly Cloudy
15:00 Legend Double Dagger 7.1 -1.1 56 26 24 24.1 100.13     LegendNANA
16:00 Legend Double Dagger 7.2 -1.5 54 24 29 24.1 100.19     LegendNANA
17:00 Legend Double Dagger 6.6 -1.1 58 25 23 24.1 100.28     Mostly Cloudy
18:00 Legend Double Dagger 6.1 -1.3 59 25 25 24.1 100.39     LegendNANA
19:00 Legend Double Dagger 6.2 -1.2 59 25 26 24.1 100.50     LegendNANA
20:00 Legend Double Dagger 5.8 -1.4 60 25 18 24.1 100.56     Mostly Cloudy
21:00 Legend Double Dagger 5.4 -1.5 61 25 20 24.1 100.62     LegendNANA
22:00 Legend Double Dagger 4.9 -0.7 67 26 15 24.1 100.66     LegendNANA
23:00 Legend Double Dagger 4.2 -0.2 73 25 13 24.1 100.70     Mainly Clear

Notes on Data Quality.

Legend

  • E = Estimated
  • M = Missing
  • NA = Not Available
  • ‡ = Partner data that is not subject to review by the National Climate Archives
Date modified: